RH
4 4 5 5 7 7 7 9 11 13 15 15 12 10 26 40 26 14 17 16 19 30 39 50 50 44 48 50 55 63 55 43 44 48 49 46 42 38 37 39 34 31 36 34 29 30 28 26 24 22 24 28 49 84 101 94 77 52 35 36 47 46 35 36 36 24 22 30 38 51 59 55 45 41 46 45 45 50 46 43 42 38 46 49 47 51 39
5 4 4 5 6 6 7 8 8 10 11 10 11 19 34 38 25 21 19 10 19 32 31 36 45 46 45 42 45 51 51 50 46 40 46 52 45 36 36 38 36 38 45 40 30 29 26 21 24 27 27 42 78 102 98 88 68 49 49 51 46 38 28 30 34 27 26 27 25 33 44 45 36 35 48 55 59 70 66 50 44 43 43 41 44 49 35
12 5 3 4 5 6 6 7 7 9 9 8 13 26 37 33 25 28 24 13 24 38 36 38 45 47 45 39 36 38 42 54 57 48 50 59 53 41 38 42 44 46 48 41 35 34 26 19 28 36 32 43 82 102 95 92 80 70 85 87 61 39 28 27 31 32 33 31 26 27 29 31 27 31 53 66 67 71 59 40 41 47 44 41 42 42 30
19 11 6 3 4 5 5 7 7 7 9 8 8 19 34 33 25 32 38 34 36 42 43 46 43 40 45 40 33 32 29 39 58 57 47 54 60 50 43 46 45 41 38 33 34 39 36 32 37 43 38 35 66 98 100 96 91 88 101 96 63 41 39 35 31 33 35 31 28 25 24 30 31 35 53 66 71 71 55 42 44 43 40 42 38 35 35
24 19 12 5 4 5 4 6 7 7 8 8 9 20 34 34 27 32 39 37 37 38 38 43 40 35 40 37 29 32 30 26 40 48 44 57 66 51 41 43 36 30 29 26 29 37 39 39 40 46 50 44 54 86 100 94 92 94 96 87 58 40 44 47 45 45 40 33 31 28 28 33 34 38 49 57 69 75 62 52 46 37 39 42 31 28 37
24 23 18 10 5 4 4 6 6 7 7 5 10 24 35 34 28 29 34 32 32 32 30 40 45 39 44 46 35 32 32 27 30 36 40 51 55 39 30 34 34 35 35 27 25 29 30 37 42 41 50 53 47 60 81 90 90 84 74 70 57 41 42 53 60 56 43 36 36 32 32 34 35 43 49 47 59 75 71 59 47 39 43 42 30 27 32
23 24 22 17 10 4 4 6 4 7 7 3 10 25 33 32 27 29 37 40 41 42 41 47 47 38 42 46 36 31 31 28 30 35 31 31 36 31 22 26 38 48 46 34 28 29 26 37 48 42 41 50 42 38 54 70 76 68 56 63 63 43 41 63 73 62 45 37 37 36 39 42 41 45 45 38 44 58 64 57 46 42 43 38 32 34 34
23 23 22 21 17 8 4 5 4 6 6 3 14 31 34 32 31 33 36 39 47 55 53 46 37 33 38 36 31 34 34 30 36 41 33 24 27 32 29 29 43 57 55 41 31 31 27 30 42 44 41 47 46 38 38 44 58 62 56 61 60 39 43 68 71 55 43 37 37 38 40 42 42 40 37 34 36 43 53 58 52 50 51 43 39 44 42
25 24 23 23 22 16 9 6 4 5 5 5 18 32 32 28 29 30 28 29 40 46 41 36 31 28 31 31 30 33 32 35 42 40 43 42 33 35 39 36 45 58 55 44 38 40 38 34 42 49 44 44 45 39 37 41 50 59 60 60 52 37 42 56 55 48 41 34 36 38 34 37 44 43 38 33 32 36 45 53 53 53 54 49 46 47 40
32 29 25 24 26 24 19 14 9 6 4 6 18 29 31 28 25 26 28 28 35 38 31 30 31 29 32 39 39 36 38 50 46 30 42 60 54 53 55 44 43 45 37 40 50 54 54 58 66 68 61 59 57 50 50 51 49 53 60 60 56 48 42 43 47 49 40 31 34 36 31 32 34 31 29 27 26 29 32 35 40 42 42 42 41 37 29
36 34 31 29 29 29 27 23 19 14 7 4 13 23 26 25 23 29 34 27 29 38 34 26 22 22 31 45 46 38 40 51 47 27 26 42 61 78 73 49 41 38 37 58 82 87 88 91 93 84 72 68 67 61 58 58 58 61 59 56 63 62 47 42 47 48 42 39 37 33 32 32 24 20 26 30 28 29 30 30 33 34 32 32 32 29 27
34 34 33 31 30 29 29 27 26 24 16 6 7 14 17 16 18 28 36 28 28 38 35 29 36 41 49 59 52 42 43 47 52 52 40 35 59 86 78 48 35 42 63 88 100 98 94 87 82 78 70 66 67 64 61 59 63 65 55 50 61 60 48 48 52 50 47 44 39 37 37 31 23 24 35 39 34 31 32 33 34 34 34 33 33 32 32
30 29 29 29 30 30 29 29 27 29 25 14 8 9 11 11 14 26 36 30 29 35 29 33 61 75 72 64 49 42 50 54 61 71 62 49 55 65 67 57 47 60 92 105 94 78 60 48 50 56 57 58 59 62 68 72 68 62 57 56 56 52 50 53 53 50 45 38 38 41 37 26 22 28 39 43 37 33 36 40 37 33 35 37 37 35 33
27 26 26 26 29 32 32 31 28 28 28 22 13 8 7 8 12 24 35 31 30 39 36 34 47 53 50 50 45 40 42 47 53 55 55 66 68 57 65 79 79 89 106 96 70 51 35 31 37 38 37 40 41 44 59 74 75 67 64 62 54 48 51 50 48 46 42 38 40 38 34 31 25 22 30 36 32 31 39 46 41 31 31 37 38 35 34
28 26 25 24 26 30 31 31 30 27 28 27 20 12 7 7 8 16 27 31 32 39 40 33 27 26 33 46 47 38 32 36 43 41 46 70 77 64 76 96 96 101 99 70 45 37 30 32 36 30 28 30 29 29 36 50 66 74 71 63 53 49 49 44 44 45 42 43 47 45 45 42 27 20 27 36 38 39 42 47 45 35 30 35 38 37 38
31 27 26 25 26 28 28 29 29 27 28 28 23 18 13 10 9 9 19 33 36 32 34 40 37 32 37 43 41 35 32 34 39 37 38 46 47 53 82 102 102 102 85 51 39 41 35 32 32 29 30 28 25 27 27 26 42 64 72 66 57 54 50 46 49 50 48 48 49 50 50 42 29 25 26 33 47 49 45 48 48 37 33 36 38 39 40
35 32 29 28 29 30 29 29 27 25 26 26 24 23 22 17 13 10 18 37 40 29 34 52 54 42 36 37 39 38 36 35 34 31 30 33 31 43 72 88 93 95 76 45 38 42 37 34 34 30 31 30 27 28 28 26 31 44 54 59 62 62 56 53 56 56 55 56 53 48 44 36 32 29 25 36 54 52 48 53 46 34 33 37 38 41 41
37 35 32 32 36 36 32 29 28 25 25 25 24 26 26 22 17 15 24 42 44 34 38 53 56 46 36 35 37 37 36 38 34 27 28 35 35 40 54 61 62 66 61 46 40 38 34 34 35 31 30 33 33 30 30 32 33 33 32 39 54 65 63 59 59 57 58 62 58 49 41 35 32 29 30 46 56 47 44 47 39 32 35 35 38 43 40
40 38 35 33 36 40 37 31 27 25 26 25 24 26 27 24 19 16 24 42 46 37 38 50 57 52 44 43 46 47 47 46 39 33 37 42 42 46 55 55 49 46 44 41 39 38 33 32 36 38 35 33 34 32 32 32 32 31 30 33 45 58 60 59 60 58 57 60 59 52 42 34 30 30 37 49 49 39 37 35 31 34 37 35 39 43 40
40 41 39 34 33 37 38 33 26 22 24 26 25 27 29 27 23 20 24 39 50 47 44 51 57 54 48 48 47 44 48 51 45 39 42 46 46 48 51 50 46 41 36 36 40 39 34 33 37 41 39 34 31 33 37 37 31 29 32 35 39 45 46 44 47 49 50 55 60 55 40 31 32 34 40 44 38 31 31 31 32 37 38 38 41 41 39
37 40 41 38 33 32 35 36 31 22 20 24 25 26 29 29 27 28 27 34 49 56 53 53 57 57 55 55 53 49 52 56 51 44 44 49 50 46 44 45 46 40 35 38 42 39 35 36 39 42 40 35 33 36 42 43 40 36 34 36 41 42 38 34 37 42 43 46 50 42 28 28 35 33 30 30 28 27 32 35 35 37 37 39 41 39 40
30 34 36 36 34 31 31 37 38 28 21 23 23 24 30 33 32 34 34 38 51 61 61 62 65 67 64 62 60 60 60 59 56 51 48 50 52 50 47 47 48 46 41 39 40 40 40 41 41 41 41 38 37 41 42 42 45 45 39 36 38 39 37 35 37 41 41 38 37 31 23 25 30 28 26 27 26 29 37 39 37 38 38 39 41 42 43
22 26 28 29 29 28 27 34 41 37 26 22 22 26 33 37 38 36 34 41 54 61 62 66 67 65 66 67 63 62 62 62 61 60 56 51 51 53 52 49 50 52 50 45 42 41 43 44 41 41 44 45 42 42 42 43 46 46 41 37 36 37 39 37 35 39 41 35 31 30 28 26 26 26 29 30 29 32 38 40 40 40 39 40 43 46 47
18 19 20 20 20 21 22 28 39 42 33 22 21 28 34 37 38 36 31 37 50 55 54 59 61 59 63 68 64 59 61 61 60 61 62 57 50 48 51 51 51 51 54 56 52 46 44 46 45 45 50 51 45 41 43 46 45 44 43 41 39 39 40 37 33 37 42 37 30 28 30 30 28 28 29 30 34 38 40 42 42 42 44 46 48 49 49
15 14 13 13 14 14 15 20 30 42 43 29 17 20 28 35 39 40 36 38 46 52 52 52 55 58 62 67 66 62 60 60 59 60 63 62 56 50 50 54 55 54 57 61 59 51 48 48 48 49 54 54 47 42 43 45 42 42 45 45 41 39 40 39 37 37 38 36 31 29 30 31 32 34 34 34 37 41 43 44 45 47 49 50 48 47 48
13 11 10 10 10 10 13 18 25 36 45 42 25 14 19 32 36 36 42 46 42 44 53 57 56 59 63 66 67 65 60 59 61 61 62 64 63 60 61 67 69 65 62 63 60 54 50 49 50 51 53 53 48 43 43 44 41 42 47 45 39 39 42 41 39 40 40 38 34 33 36 35 33 37 41 41 42 47 49 47 48 49 49 47 43 42 42
13 11 10 10 10 10 13 18 24 29 38 46 40 24 19 29 33 36 53 61 39 22 35 54 60 63 66 66 65 64 60 59 62 64 65 66 67 69 73 78 77 69 64 63 62 56 52 54 57 57 56 57 54 50 49 49 48 50 52 46 39 42 45 42 41 46 47 40 33 35 42 42 37 39 45 46 47 52 54 51 50 50 47 44 44 43 42
16 14 12 11 10 11 14 19 24 25 25 35 45 41 33 35 40 46 60 67 51 33 38 54 60 58 58 59 60 61 60 60 63 66 65 63 66 72 78 82 80 72 64 62 62 58 54 58 60 58 57 58 57 55 52 51 53 54 51 44 41 41 39 37 38 41 40 34 33 40 48 50 46 45 49 51 53 56 56 52 50 48 46 45 47 48 47
16 15 14 13 12 12 15 19 22 20 17 22 38 51 48 41 41 47 54 59 62 60 57 56 54 50 51 56 59 59 58 60 64 66 64 63 67 75 83 87 83 71 60 58 60 57 55 58 58 55 54 55 54 51 48 49 54 51 40 36 40 40 36 37 40 42 42 42 44 50 55 56 54 52 53 55 57 58 56 52 49 49 47 47 48 49 50
16 16 16 15 13 13 18 22 23 21 16 16 29 48 54 43 38 44 51 54 56 56 54 52 49 46 52 62 63 56 52 57 64 64 60 61 69 80 90 93 86 75 67 63 63 62 61 62 60 57 56 57 55 51 49 53 58 49 33 32 43 46 44 46 49 51 54 54 53 57 59 56 53 50 50 50 50 52 55 54 52 50 48 48 49 50 49
16 16 17 16 15 17 22 25 26 23 15 13 26 45 49 39 34 43 51 52 51 54 57 55 48 48 57 59 55 53 56 60 63 61 57 61 73 84 92 93 85 77 72 67 67 70 71 67 62 58 58 60 58 52 51 56 60 53 43 45 53 55 54 55 54 54 57 60 60 57 51 47 46 46 46 46 47 49 52 51 48 48 50 52 53 52 51
17 17 20 19 17 21 27 29 28 25 18 16 28 44 49 45 45 50 52 50 52 58 57 43 36 50 65 56 45 53 61 59 57 56 53 60 71 79 86 91 87 80 76 72 72 75 75 70 65 62 63 63 58 54 55 58 60 58 54 55 58 58 56 54 52 51 53 60 65 62 52 46 47 49 49 49 47 47 48 48 47 49 53 55 55 54 53
16 17 20 20 20 26 34 32 26 23 23 28 39 53 61 63 60 57 52 50 51 56 59 52 49 57 60 47 42 52 57 56 61 61 55 61 73 74 76 85 88 82 79 78 73 69 68 70 68 66 65 62 57 59 65 64 60 58 57 56 58 58 54 48 46 48 50 52 57 64 61 54 51 51 49 47 46 46 48 49 50 53 56 57 58 57 55
15 16 19 21 24 29 34 33 28 25 27 35 47 61 70 69 62 55 51 51 52 54 59 63 64 63 56 46 47 55 55 55 63 64 57 63 75 74 70 74 77 72 72 74 71 66 67 72 71 67 65 64 65 69 70 64 59 59 57 55 56 57 53 48 46 48 50 48 48 52 52 48 48 49 48 47 48 49 50 51 53 57 59 60 59 58 56
13 15 17 21 26 33 36 32 28 30 36 41 51 64 73 70 63 56 51 49 54 63 69 70 67 64 60 55 53 56 55 54 62 69 67 66 72 78 80 74 66 63 66 68 68 68 68 68 67 64 64 68 73 75 70 63 62 61 56 55 57 58 57 56 53 49 49 49 47 46 44 44 48 51 50 51 52 52 51 53 54 56 59 60 58 57 57
11 14 20 25 30 37 38 32 30 39 50 56 59 64 68 67 65 62 56 51 55 68 81 83 74 66 62 58 56 58 56 54 61 72 74 67 64 74 82 72 60 64 73 73 75 80 74 63 59 61 64 68 71 70 67 65 63 60 57 56 58 59 57 55 52 49 48 48 48 46 46 48 52 53 52 53 52 51 53 55 54 55 59 60 58 58 59
9 15 22 24 30 38 37 33 39 51 61 65 65 61 59 63 64 59 54 52 54 62 73 76 73 75 78 72 65 61 56 55 62 66 65 63 63 69 78 75 68 70 71 67 73 86 82 67 62 63 64 66 67 66 67 68 64 62 62 59 56 56 54 50 47 48 49 50 49 48 50 51 52 53 54 53 52 53 54 55 55 56 59 61 60 60 60
12 19 18 21 39 55 49 37 42 55 62 64 62 53 49 54 58 59 64 67 62 62 71 73 75 88 96 84 68 61 58 62 68 65 59 62 64 62 68 73 70 67 63 57 62 74 75 72 79 83 77 72 67 62 65 69 64 60 60 57 52 52 50 45 44 48 51 54 54 52 53 55 55 54 55 55 54 54 55 55 55 56 58 60 61 61 61
16 21 18 22 44 59 50 39 45 58 64 60 53 51 52 52 46 49 67 79 71 64 70 78 85 96 99 85 71 65 61 63 68 65 61 63 61 53 55 63 64 64 64 57 54 56 54 59 77 88 82 73 66 60 62 67 62 54 51 48 44 44 43 41 43 46 49 52 53 51 52 55 57 57 58 58 56 56 56 57 57 57 58 59 61 63 65
19 26 30 38 46 46 43 46 52 60 63 56 48 49 56 58 57 62 71 80 81 76 74 79 87 93 94 92 88 78 66 61 65 67 67 68 62 56 59 63 62 64 66 60 56 57 54 56 72 80 72 65 64 62 61 60 53 46 43 41 39 40 41 42 43 44 45 47 48 48 50 54 57 59 60 60 60 61 60 60 60 60 60 62 63 64 65
29 35 41 48 48 40 42 51 52 49 50 48 47 51 55 56 69 81 75 68 78 87 83 79 81 80 82 91 95 86 71 65 67 71 74 74 69 65 65 63 64 70 73 67 62 62 62 67 77 77 67 62 65 64 58 53 47 42 40 39 39 41 42 43 43 44 45 48 50 51 52 56 59 61 61 61 63 65 65 65 65 64 63 64 64 63 61
33 41 45 48 45 38 38 45 45 45 51 50 48 59 69 64 62 66 59 55 70 84 79 74 76 75 72 77 82 77 70 67 68 72 74 74 74 76 78 80 86 88 81 69 64 68 74 80 81 73 65 64 64 59 52 47 44 42 40 39 40 42 43 43 45 45 46 50 54 55 56 60 62 62 62 64 65 66 66 66 67 66 65 64 63 61 61
33 41 39 36 36 34 34 38 40 51 66 63 45 44 58 60 56 61 66 68 78 85 78 72 74 71 65 66 70 70 66 65 68 73 76 77 83 90 93 96 98 90 75 70 76 81 81 82 77 68 63 62 57 49 45 44 42 41 41 40 40 42 43 44 47 48 49 52 56 57 59 62 63 62 61 62 64 65 64 63 64 65 66 65 63 62 62
34 39 35 33 36 35 28 27 31 39 52 58 48 42 47 52 56 67 73 72 75 81 81 81 83 81 73 71 73 73 70 68 69 71 72 75 85 96 98 95 91 79 64 66 78 77 68 66 67 61 56 53 47 41 41 43 42 42 43 42 41 43 44 45 47 50 52 54 56 58 60 62 62 63 63 62 62 65 65 64 64 65 65 64 64 64 64
40 49 40 29 31 31 25 27 36 40 45 57 65 61 58 59 65 74 79 79 83 87 83 82 91 97 90 76 69 72 79 81 74 70 72 77 84 90 88 84 86 84 77 78 86 81 64 57 59 55 49 45 43 41 41 43 42 43 46 46 44 44 46 48 51 54 56 57 57 59 61 63 63 63 63 62 61 63 65 65 66 66 65 65 67 68 67
57 72 53 24 23 37 40 39 41 42 49 69 81 76 70 72 74 76 83 91 95 91 84 84 93 101 95 78 65 67 83 90 81 76 84 92 94 92 85 77 79 90 95 95 96 88 69 53 50 48 44 43 43 43 44 44 44 45 48 49 48 47 48 50 53 55 56 57 58 60 61 62 62 62 63 63 63 63 64 64 64 65 66 68 70 70 70
59 78 58 29 32 48 48 46 53 57 63 80 90 84 80 85 86 83 89 98 98 94 93 93 93 91 88 81 69 65 79 94 91 80 77 80 83 88 91 87 87 96 103 99 90 78 63 51 46 43 43 45 48 49 49 48 47 48 49 49 49 50 51 52 55 56 56 58 60 62 62 62 61 63 65 66 66 64 63 63 63 64 66 69 70 70 71
60 66 42 24 35 48 45 51 71 81 81 90 98 94 90 94 94 88 90 96 97 96 95 92 86 80 79 81 76 69 75 88 90 81 77 82 87 91 95 97 94 93 94 90 76 58 47 43 44 45 49 53 53 52 52 50 49 51 52 53 53 54 54 55 57 58 58 60 63 64 63 63 64 65 67 69 68 65 62 62 63 65 67 70 71 70 71
55 54 43 42 61 79 82 80 80 79 81 89 95 95 98 101 95 84 83 92 98 95 90 88 85 81 80 86 91 89 85 85 85 82 86 96 99 96 97 101 97 84 73 67 58 46 40 43 48 53 58 60 58 56 53 50 50 54 57 57 57 57 58 58 59 58 59 61 64 64 64 65 66 67 67 68 66 64 62 63 66 68 69 70 71 72 72
49 52 56 55 54 65 79 78 65 61 73 82 80 80 91 98 87 72 73 89 97 92 88 89 88 84 86 94 95 88 84 89 95 95 93 93 95 95 95 91 81 65 53 48 45 42 42 44 49 54 59 61 60 57 54 53 56 60 61 60 61 61 60 60 60 60 60 61 62 63 65 66 65 65 66 65 64 64 65 66 67 69 69 69 71 73 75
57 50 61 64 50 47 59 61 48 44 57 68 71 75 86 90 80 65 66 80 88 83 81 91 96 94 95 97 88 74 73 86 98 98 90 84 90 100 97 78 57 47 45 44 45 46 47 48 51 57 61 62 60 58 57 59 62 63 62 61 62 63 62 62 62 61 62 62 62 62 64 65 63 63 63 62 63 66 68 67 66 67 69 71 74 76 78
62 44 58 81 85 80 74 66 58 61 70 76 81 85 85 83 78 71 69 78 84 77 76 91 104 100 90 86 84 82 86 94 98 95 85 78 83 92 87 68 52 48 49 50 50 51 51 53 56 60 63 63 62 62 63 64 63 61 60 60 62 63 64 65 65 65 65 65 63 63 64 64 63 62 64 65 68 70 71 68 66 66 68 72 76 78 79
Wind_Speed
38 38 37 35 30 23 17 13 9 8 8 7 6 6 4 3 3 7 13 2 4 8 6 0 3 4 1 1 1 2 1 1 1 1 1 1 1 1 1 1 1 1 1 1 1 1 1 1 1 1 2 1 0 1 1 1 2 1 0 1 1 1 2 3 6 8 2 3 3 2 1 2 3 3 0 0 1 1 2 3 2 3 3 2 2 4 9
36 36 36 35 33 26 19 14 10 8 11 10 9 7 3 2 3 6 15 6 3 3 5 2 2 3 1 2 2 1 1 1 1 1 2 2 0 1 1 0 1 1 1 0 1 1 0 1 0 0 2 1 2 2 1 1 1 1 1 2 1 1 1 2 6 7 3 1 1 0 1 1 3 2 2 1 1 3 0 2 1 3 6 6 6 6 9
35 35 34 33 32 29 22 15 10 7 9 8 5 5 3 3 2 2 15 18 9 4 2 2 4 3 2 3 2 1 1 2 1 1 2 2 1 1 1 0 1 0 0 0 0 1 1 1 0 0 2 1 3 3 3 2 1 2 3 2 2 2 1 2 5 7 6 6 7 5 3 3 4 3 2 2 1 2 2 3 3 5 4 2 6 9 11
33 34 34 32 31 29 24 17 11 9 8 8 8 8 3 2 3 1 7 13 10 4 1 2 4 3 2 3 2 2 2 1 1 1 1 1 1 1 0 1 1 0 1 1 0 1 0 1 1 1 3 1 2 3 3 2 2 2 2 2 1 1 1 3 5 7 7 9 11 7 5 8 12 11 4 3 4 2 2 3 5 5 2 3 10 12 11
32 33 33 32 31 28 25 21 12 8 10 11 12 10 4 2 3 1 2 3 4 3 3 4 2 1 1 2 1 2 2 1 0 1 0 1 0 0 0 0 1 1 2 2 1 2 1 1 0 2 3 1 1 2 2 2 2 4 2 2 0 0 2 2 4 9 10 10 15 14 9 12 16 16 11 3 5 4 5 9 9 3 2 8 13 11 9
32 32 32 33 32 29 25 23 17 8 5 6 8 6 5 3 2 1 1 1 2 3 3 3 3 3 2 1 1 2 2 2 1 0 0 1 1 1 1 2 2 1 2 1 1 2 2 1 1 1 1 2 1 1 2 1 2 3 1 1 0 1 3 0 1 9 11 11 16 17 13 13 12 13 15 10 4 7 9 14 13 6 6 12 15 16 15
32 32 32 32 32 32 28 23 20 15 7 8 12 8 3 3 3 1 2 2 2 1 2 1 3 5 4 2 2 2 3 4 2 1 0 1 1 1 1 3 3 1 2 2 1 1 2 3 3 1 1 2 2 1 1 1 1 2 0 0 0 2 2 0 1 9 13 10 11 11 9 9 10 12 14 11 9 10 12 16 14 10 13 18 19 21 20
33 32 32 32 31 32 32 27 23 18 16 19 19 10 3 2 3 1 2 4 2 1 2 1 2 4 3 2 2 2 2 3 1 1 1 2 2 2 3 4 3 1 1 2 3 2 2 4 5 1 0 2 1 0 1 1 0 1 0 1 1 1 1 1 1 7 11 5 4 5 6 7 11 15 12 8 10 11 10 11 10 8 12 16 16 16 16
34 33 32 32 32 32 32 32 28 21 20 23 16 7 5 6 3 4 5 4 3 2 1 1 2 3 3 2 2 1 2 2 1 1 1 1 2 2 4 4 2 1 1 4 4 2 3 6 4 1 1 2 1 0 1 1 1 1 1 0 1 1 1 1 1 6 8 2 2 9 11 8 9 11 11 7 7 7 6 6 5 6 7 9 9 9 8
35 34 33 32 33 33 32 33 34 28 23 21 12 4 5 6 3 3 5 3 2 2 1 1 2 2 2 2 1 1 2 1 1 1 1 1 2 2 2 3 2 1 2 3 2 2 3 4 3 2 1 2 2 1 1 1 2 1 2 0 1 0 1 1 2 4 7 5 6 12 14 9 2 2 5 7 6 7 7 5 6 8 6 5 6 6 9
34 34 34 33 33 34 33 33 35 32 28 23 15 7 4 5 3 2 4 5 2 2 1 3 3 2 1 2 1 1 1 1 1 1 1 1 0 0 2 2 2 3 2 1 2 2 2 2 2 1 1 1 0 1 2 2 1 1 2 1 0 1 1 1 0 2 7 9 10 12 10 4 2 1 2 4 6 6 8 11 9 7 8 7 7 8 11
33 33 33 33 32 32 32 32 33 33 30 27 22 16 10 8 6 2 4 6 2 3 2 2 2 1 1 2 1 1 2 2 1 2 2 2 0 1 2 2 2 2 2 3 2 1 1 0 2 3 2 2 2 2 2 2 1 1 1 2 2 2 2 1 1 2 6 7 8 9 7 5 6 6 1 3 5 6 9 16 14 6 9 10 9 10 12
32 32 32 32 31 30 30 30 30 31 29 25 24 22 16 12 9 4 4 6 2 2 3 2 1 1 1 1 1 1 1 1 1 1 2 2 2 2 2 2 2 2 4 4 3 2 2 1 1 4 4 3 3 3 0 1 1 0 1 1 2 3 2 1 1 2 4 4 3 4 9 10 10 7 2 3 3 3 7 14 10 3 7 5 7 10 12
31 31 31 30 29 28 28 28 28 28 26 22 23 24 19 14 10 4 3 5 3 1 1 2 1 1 1 0 1 1 1 0 1 1 1 1 2 3 1 1 2 4 5 5 2 1 2 1 2 0 1 1 1 1 1 1 1 1 1 1 2 3 3 1 2 2 1 4 4 5 11 12 6 3 2 1 3 3 5 11 9 3 6 1 8 12 15
31 31 30 29 27 25 25 25 25 25 24 21 20 23 22 17 13 8 5 6 4 1 1 1 1 1 0 0 1 1 1 1 1 1 1 1 3 3 1 0 1 3 4 3 1 1 1 1 2 3 2 2 1 2 2 1 1 1 1 2 1 2 2 2 2 1 1 3 5 5 7 8 3 3 3 2 3 3 3 7 8 3 5 1 8 13 14
31 31 30 28 27 25 23 23 23 23 22 20 18 20 21 18 15 14 10 6 4 3 1 1 3 2 2 1 1 1 1 1 1 1 1 1 2 2 1 1 1 1 2 1 1 2 2 1 0 1 2 1 1 3 4 2 1 1 1 1 2 2 0 1 2 3 1 2 4 3 4 7 7 6 4 4 3 3 3 5 7 3 5 1 5 10 13
30 31 31 29 27 26 25 23 21 21 20 19 17 18 19 15 13 14 11 6 4 3 1 3 3 1 1 1 1 0 1 0 0 0 1 2 2 2 1 2 1 1 1 2 1 2 2 2 0 1 2 1 1 3 4 3 3 2 1 1 3 3 1 2 3 3 2 3 3 3 5 8 10 10 5 2 4 4 3 6 6 1 3 3 3 7 12
29 30 30 29 27 27 27 25 22 20 18 17 17 18 18 14 11 12 10 5 3 3 2 3 3 1 1 1 0 1 1 0 0 1 1 1 1 1 1 1 0 1 1 1 2 2 1 0 0 1 2 1 0 3 2 1 3 4 2 2 1 2 1 1 2 2 3 4 4 4 5 8 10 9 3 3 4 3 4 7 5 7 10 9 4 7 11
27 28 29 30 28 27 27 27 25 22 18 16 15 16 17 14 10 12 11 5 2 3 3 3 2 1 1 1 1 1 1 1 0 1 1 1 0 1 0 1 0 0 0 0 1 1 1 1 1 0 1 1 0 1 2 1 2 3 2 3 2 1 1 1 1 1 2 3 3 4 6 6 5 3 2 4 1 5 6 6 6 7 10 11 8 8 10
25 26 28 29 28 27 27 27 27 24 20 16 16 16 17 14 10 10 11 8 4 3 2 2 1 2 2 1 0 1 1 0 1 1 0 1 0 1 0 0 0 0 1 1 1 1 0 1 0 0 2 2 1 1 2 4 4 4 3 3 2 1 1 2 2 2 1 1 2 3 6 2 3 1 2 3 3 6 7 7 8 6 7 9 8 8 9
23 24 26 27 28 27 26 27 27 26 21 16 14 16 17 15 13 13 14 16 11 3 1 2 2 3 3 2 3 2 0 0 0 1 0 1 1 1 1 1 1 0 0 1 1 0 1 0 0 1 1 1 1 1 2 4 4 3 1 2 2 3 3 3 2 2 1 2 3 5 6 1 5 0 4 5 6 5 5 6 8 7 6 6 6 7 9
21 22 23 24 26 26 26 26 26 27 25 17 12 15 16 15 14 14 15 18 15 8 6 7 6 7 7 6 6 5 3 1 1 1 1 0 1 0 0 1 0 0 0 0 1 1 0 0 0 2 2 1 2 2 1 3 5 3 1 1 3 4 4 2 3 3 3 5 8 10 11 8 2 3 7 10 11 7 3 5 7 7 6 5 5 8 10
20 20 21 22 24 24 25 25 25 25 26 21 14 15 17 16 15 15 17 21 18 12 8 8 6 6 6 5 6 7 6 4 2 1 2 1 0 1 1 0 0 1 0 0 1 2 1 1 1 1 2 2 1 2 2 3 4 3 1 3 4 3 2 0 3 3 3 9 13 12 11 12 9 7 7 8 9 7 3 3 6 7 7 6 6 8 10
18 19 20 21 22 23 23 23 23 23 25 24 18 14 15 14 12 11 12 12 9 5 4 3 2 2 2 3 4 6 7 7 5 2 3 4 1 0 1 1 1 1 0 0 1 1 1 1 0 0 2 2 1 2 4 4 3 1 2 4 4 2 2 2 6 4 3 8 12 8 7 10 11 11 11 8 6 4 3 4 7 9 8 7 7 9 10
18 19 20 20 21 22 21 21 20 20 21 22 19 14 14 13 9 5 4 4 3 4 3 1 0 1 1 2 3 3 5 6 6 5 1 5 6 3 1 2 2 1 1 2 2 1 0 2 1 1 2 2 2 2 2 3 2 1 2 6 4 1 2 3 7 8 8 11 13 11 12 13 11 8 8 6 5 6 6 7 8 7 6 7 8 9 10
18 18 19 20 20 20 20 19 18 17 16 18 20 20 21 20 15 9 6 5 3 3 3 1 1 0 0 1 2 2 4 5 6 6 4 4 7 7 5 3 2 1 2 2 1 1 1 1 1 2 3 2 2 2 2 3 3 1 4 7 2 2 1 5 5 6 9 12 12 10 10 13 9 4 3 7 10 11 10 9 8 7 8 11 14 15 15
17 18 18 18 19 19 18 17 17 16 14 12 15 20 24 25 22 16 13 9 4 0 2 1 1 1 1 1 1 3 3 5 8 8 6 4 5 6 6 5 2 1 2 1 1 1 1 0 1 3 3 1 1 2 2 3 3 3 7 6 1 2 6 6 3 5 8 9 9 9 9 12 12 10 11 14 13 10 9 10 10 11 14 15 17 19 19
17 17 17 17 17 17 17 16 16 16 14 9 7 11 18 25 26 21 16 12 6 0 1 1 1 1 2 2 2 5 5 7 10 8 5 4 3 4 5 6 4 1 1 1 1 1 2 1 2 2 1 1 2 2 2 1 1 3 7 5 4 4 5 3 3 8 10 12 14 14 11 12 14 15 17 16 11 8 9 12 13 14 15 15 15 16 17
15 16 16 16 16 15 15 15 15 16 16 10 4 2 6 14 22 23 16 13 10 4 2 2 2 1 1 2 4 5 7 11 13 8 2 2 4 5 5 6 5 2 2 1 0 1 2 2 2 1 1 2 2 2 2 1 1 6 9 4 2 2 6 7 8 12 14 16 17 16 12 11 13 14 13 10 9 9 11 14 14 13 15 17 15 15 16
15 15 14 14 15 14 14 15 15 17 17 11 4 2 2 5 15 22 17 12 11 6 2 2 1 1 2 2 3 5 11 15 13 7 3 3 4 5 5 4 4 3 2 1 1 1 1 1 2 2 2 2 2 2 2 1 2 6 9 7 9 10 10 9 8 9 10 12 13 12 11 10 10 10 10 11 14 14 12 12 14 15 18 20 18 16 19
14 14 14 13 13 13 13 15 15 15 16 13 7 4 1 1 9 17 15 11 10 6 3 2 1 1 2 2 2 7 15 15 10 6 6 5 3 2 3 3 3 3 2 0 0 1 1 1 2 2 2 3 3 2 1 2 3 4 9 14 14 12 11 10 7 7 8 9 10 10 11 11 11 12 13 15 19 19 14 14 19 22 23 23 22 21 23
13 13 12 12 12 11 11 14 14 12 14 17 14 7 3 1 7 12 11 9 8 5 3 2 1 1 2 3 2 8 15 12 7 8 7 3 1 2 1 1 1 4 4 1 0 1 2 2 2 2 1 2 3 2 1 2 3 6 13 15 11 10 11 9 9 9 8 7 8 11 13 14 14 14 15 17 20 21 19 19 24 26 24 23 24 25 26
12 12 11 10 10 9 9 11 12 10 12 17 16 12 8 6 7 10 8 7 7 6 4 2 1 0 2 3 2 9 14 8 3 6 5 1 2 2 0 1 0 3 4 2 2 2 1 2 1 2 1 2 1 2 1 1 5 9 11 10 9 9 9 9 10 10 9 9 9 9 10 13 14 16 18 20 21 23 23 23 24 23 21 19 19 20 22
11 10 9 8 8 7 7 9 11 9 9 12 12 11 10 10 11 13 10 5 5 5 4 3 2 1 3 2 1 6 11 5 1 2 3 1 2 2 1 0 1 1 3 3 2 2 1 1 1 2 1 1 0 2 2 5 8 8 8 8 8 9 9 10 12 11 11 12 12 10 12 15 16 17 18 18 19 22 25 24 23 20 17 15 14 15 18
9 8 7 7 6 4 5 7 10 9 7 8 8 7 6 7 12 17 15 9 4 2 2 3 2 1 3 3 2 4 9 5 1 1 2 1 3 3 1 0 1 1 2 1 2 1 1 1 1 1 1 1 1 2 2 6 8 8 9 10 10 10 10 12 13 13 12 13 14 14 16 18 17 16 16 15 16 19 20 20 20 20 17 14 15 16 17
8 7 6 5 4 2 1 4 9 9 6 6 6 4 4 5 8 12 15 15 10 4 1 1 1 2 1 2 3 4 8 6 1 1 2 2 2 2 1 0 1 1 0 0 2 2 1 1 1 1 1 2 1 1 1 4 7 9 10 10 9 9 9 11 12 13 14 15 16 16 17 18 18 18 17 16 16 17 18 19 20 20 19 18 18 17 15
6 6 6 4 3 2 1 4 8 10 8 6 4 4 5 5 5 6 9 11 12 9 5 2 1 1 1 2 2 4 7 4 1 2 2 2 2 1 1 0 1 1 1 2 3 2 1 1 1 2 1 3 3 1 1 2 4 6 8 9 9 8 9 11 13 16 17 18 19 18 18 19 19 17 17 18 18 18 18 19 18 18 19 18 17 16 17
5 4 4 4 2 1 2 5 9 10 8 5 3 4 3 3 3 4 4 5 6 7 6 3 1 1 1 2 3 4 5 2 1 2 2 1 2 2 0 0 1 1 2 3 3 1 0 0 1 1 2 1 2 1 2 3 4 4 5 7 7 8 9 10 13 16 16 16 17 17 17 17 18 17 16 17 17 16 16 17 17 18 18 17 17 19 21
4 2 2 3 2 0 2 7 10 9 6 4 3 2 3 4 3 2 2 2 3 3 3 2 2 0 0 2 4 4 3 2 2 2 1 0 2 2 1 1 1 1 2 4 1 1 0 1 0 1 1 1 1 4 4 4 5 5 7 9 10 12 14 14 15 16 14 13 15 16 16 17 17 16 14 14 15 16 17 18 19 21 22 22 24 24 21
5 3 2 3 3 3 5 7 8 5 3 4 4 3 2 3 3 1 1 2 2 2 1 2 0 1 1 1 4 3 1 1 2 2 1 2 1 0 1 2 1 1 3 4 1 1 1 1 1 1 0 0 3 6 6 6 6 8 13 17 19 21 22 21 20 22 21 19 21 23 24 24 22 19 16 15 15 15 16 17 20 25 28 29 29 27 23
8 5 3 3 4 5 5 5 5 3 2 2 3 3 2 2 1 1 1 2 1 2 1 1 2 2 0 1 2 2 2 2 0 1 0 2 1 1 1 2 1 0 3 4 1 2 1 0 1 1 1 1 4 5 6 8 9 12 19 25 27 28 27 26 27 30 30 25 24 27 30 31 30 26 24 22 20 18 18 20 24 30 33 32 32 31 30
8 6 4 4 4 5 5 4 5 4 2 2 2 2 1 1 1 1 1 1 0 2 1 1 1 4 3 2 2 3 2 2 1 1 0 2 1 1 1 2 2 0 4 3 1 3 1 1 2 2 1 2 5 6 7 10 11 14 21 27 29 30 32 31 31 34 36 31 28 29 31 33 33 32 32 31 30 29 29 30 32 34 36 36 36 36 35
8 6 4 3 3 4 4 4 3 3 2 2 2 2 2 2 2 1 2 1 0 1 2 1 3 5 5 3 2 4 4 2 1 0 1 2 1 1 2 2 0 1 2 1 2 2 1 2 2 1 1 3 6 8 11 14 15 17 23 30 33 34 35 34 32 34 37 36 34 34 34 34 35 36 38 39 37 36 37 40 40 39 38 38 38 37 37
7 4 3 2 2 3 3 2 2 2 3 2 1 2 1 2 1 0 2 2 1 1 2 2 2 3 3 2 1 2 3 1 1 0 1 2 1 2 1 2 2 2 2 1 0 1 3 3 2 1 3 4 8 13 16 17 17 18 22 29 34 35 35 35 34 33 33 34 35 36 35 35 36 37 39 39 38 37 38 42 43 41 40 39 37 37 39
5 3 3 3 2 2 1 1 1 2 2 1 1 2 2 1 2 2 1 1 0 1 3 2 0 1 2 2 1 1 1 1 1 1 1 1 1 1 2 2 1 1 2 2 1 2 4 3 0 3 6 8 12 17 18 18 20 22 22 24 29 32 32 32 32 30 30 32 35 35 34 34 34 35 35 37 39 39 39 40 40 39 39 38 36 37 39
3 2 2 2 1 1 1 1 1 2 1 1 2 2 2 3 3 3 1 1 1 2 4 3 1 1 2 2 1 0 0 1 1 1 0 1 1 3 2 1 1 1 1 2 2 3 4 3 3 6 11 14 17 19 18 19 23 25 21 19 23 29 33 34 33 32 32 34 35 35 34 34 34 34 35 37 39 40 40 40 41 40 39 36 34 37 40
3 2 2 2 0 1 2 2 1 0 1 1 2 1 1 0 1 2 2 3 2 2 3 2 1 2 2 1 1 1 1 2 1 2 0 1 2 3 2 1 1 2 1 2 3 4 3 4 6 10 14 17 18 18 17 18 22 23 21 20 23 28 32 34 33 33 35 37 36 35 35 35 36 36 35 35 37 40 41 42 43 42 40 38 38 40 41
2 1 2 1 1 0 2 1 1 0 1 1 1 1 1 1 1 2 4 5 3 2 2 2 1 0 0 0 0 1 1 1 0 2 0 1 1 3 3 2 3 2 2 3 4 5 5 7 10 13 15 17 17 17 16 18 20 21 22 23 24 27 31 33 33 34 37 38 35 33 34 36 37 37 35 34 36 39 42 43 44 43 43 41 41 41 41
4 2 2 2 1 1 1 1 1 1 1 1 1 1 1 1 2 3 3 3 2 2 3 1 1 0 1 1 1 0 1 0 1 1 2 1 1 2 2 2 3 3 2 2 3 6 8 9 12 14 16 16 16 16 17 20 23 25 26 28 31 32 33 33 35 38 40 38 34 35 38 38 37 36 35 34 34 37 42 45 45 43 43 43 42 41 41
5 3 2 2 2 1 0 0 2 2 2 3 3 1 1 1 2 3 3 3 1 2 1 1 2 1 1 1 2 1 1 1 1 0 1 1 2 1 1 3 4 4 5 5 6 9 11 11 12 14 17 18 17 17 18 23 27 30 32 35 37 36 35 36 38 39 40 39 39 40 41 38 36 35 36 35 36 40 43 45 43 41 42 43 42 40 40
3 2 2 2 2 1 2 2 2 0 2 3 3 2 2 2 2 3 3 2 1 3 2 1 1 2 2 2 1 1 1 0 1 1 2 2 2 2 2 5 6 7 8 9 9 10 11 11 10 12 15 15 16 19 24 29 33 36 37 39 38 37 37 39 40 39 40 42 43 42 41 40 40 41 42 43 43 40 36 36 38 40 41 40 40 39 40
2 2 1 1 1 2 3 2 1 1 3 3 2 2 1 1 2 2 2 1 0 2 1 1 2 2 1 1 1 1 1 1 1 2 2 2 2 3 3 5 7 8 9 10 11 11 10 10 12 14 16 16 19 25 30 33 35 37 40 41 40 38 37 38 38 38 39 40 41 43 43 44 44 45 43 40 35 28 22 24 34 41 42 39 39 40 41
Wind_Direction
39 38 37 35 37 43 49 60 87 110 110 118 121 108 64 60 113 356 353 50 123 61 76 353 21 74 68 44 69 19 29 18 8 47 5 335 323 18 61 12 28 92 305 265 237 259 226 237 326 255 240 251 347 86 82 309 271 248 274 80 67 297 251 283 282 270 266 100 116 114 37 329 281 267 154 165 314 6 297 295 342 310 269 243 248 256 275
38 38 38 36 34 37 42 51 69 106 124 121 101 97 86 84 137 22 15 21 205 70 84 139 71 88 147 89 72 40 51 29 16 7 8 24 10 44 72 2 22 69 8 294 283 344 12 254 342 237 242 194 86 61 10 324 348 24 358 18 20 291 268 325 309 309 326 10 1 50 154 252 267 252 104 68 24 61 26 221 147 277 263 247 253 261 269
37 37 38 37 34 33 36 44 57 89 133 149 107 102 132 75 109 359 21 37 62 83 85 130 120 132 142 88 52 26 100 56 1 321 21 38 302 22 83 304 345 73 209 115 7 347 358 314 15 2 263 208 98 58 7 349 23 34 8 351 304 295 324 310 304 319 326 318 321 328 326 313 280 251 110 109 144 138 251 271 250 252 259 232 248 259 271
36 36 36 37 36 33 31 37 56 77 98 129 108 89 114 77 56 328 2 32 54 74 17 72 108 141 130 89 26 7 75 85 231 248 30 54 321 1 78 263 326 19 286 1 347 301 337 18 1 283 261 245 87 54 19 21 29 6 348 309 295 335 261 248 257 267 276 288 293 299 322 310 290 287 287 159 162 178 224 264 254 248 282 272 254 256 273
35 36 36 37 36 35 32 31 43 88 102 104 93 66 48 95 77 9 316 14 37 61 48 32 57 134 116 89 29 7 4 1 158 197 161 98 229 285 138 3 1 336 334 352 309 277 290 58 313 256 255 290 56 69 57 48 343 329 312 242 253 353 261 256 250 251 253 270 281 286 292 284 280 288 291 239 162 165 202 230 240 245 321 277 267 268 275
35 35 36 37 36 37 37 33 36 65 119 120 100 65 21 67 122 264 309 46 24 32 33 23 42 54 61 109 79 8 11 30 28 291 187 140 235 246 93 46 28 332 290 313 306 303 310 284 264 269 293 323 0 64 75 59 325 317 280 196 287 268 271 320 254 269 265 257 267 276 278 271 268 275 279 272 215 178 207 238 243 230 239 256 270 284 287
36 36 37 37 37 38 40 41 44 55 88 116 100 80 21 67 107 314 347 64 104 23 354 351 49 48 49 78 63 23 36 46 27 290 288 1 339 1 0 2 7 283 251 283 291 303 319 300 287 282 1 316 322 4 51 105 301 293 216 41 234 199 251 194 207 285 287 267 259 268 267 270 274 266 264 269 258 227 225 246 249 237 243 255 269 281 284
38 37 38 38 39 40 41 44 48 58 80 90 81 64 30 107 125 136 57 75 88 32 353 349 42 44 39 49 49 24 25 32 15 325 1 6 9 5 345 342 337 272 236 249 257 261 258 266 261 202 102 309 287 249 321 99 124 291 85 38 272 222 278 99 149 292 299 286 256 262 242 242 270 280 280 272 267 258 244 251 253 238 248 260 269 276 277
40 39 40 40 41 42 44 46 47 52 73 80 71 47 61 84 110 134 109 74 7 357 22 20 45 44 22 19 38 13 14 26 348 301 309 332 334 331 328 322 300 243 235 244 258 279 251 255 263 202 286 307 323 256 323 347 319 314 122 154 308 267 272 48 36 304 294 279 311 304 290 261 253 278 293 285 269 266 249 233 212 203 242 270 272 274 286
42 40 42 43 43 44 45 48 48 49 63 78 79 64 81 87 94 102 97 78 4 354 8 11 54 67 13 7 13 351 15 36 262 273 192 258 300 318 306 296 271 266 272 265 295 339 294 293 339 21 327 313 327 310 290 275 275 248 150 142 348 304 257 312 10 302 284 297 325 312 305 303 271 248 296 302 294 283 270 252 207 197 218 270 280 285 308
43 42 42 44 46 46 46 49 49 46 53 70 83 90 94 106 110 73 78 84 36 335 21 37 40 60 351 6 16 325 8 355 278 23 12 260 306 345 259 263 284 279 276 340 29 2 321 345 34 44 347 336 243 226 211 208 240 233 180 151 101 179 228 276 70 272 287 311 325 310 301 334 23 217 237 272 277 282 286 287 276 226 204 231 270 289 298
43 43 43 43 46 47 47 49 50 47 48 59 74 79 77 87 97 77 83 94 40 337 59 64 356 340 340 352 325 277 344 340 332 3 321 289 333 237 233 243 288 303 22 20 345 269 230 85 125 120 94 85 107 124 187 194 109 344 240 171 149 169 193 226 175 242 283 313 340 325 318 359 344 310 249 199 230 241 264 279 283 244 204 229 263 280 285
43 43 43 43 45 47 48 50 51 50 47 50 63 71 72 80 88 82 89 99 71 347 71 113 206 226 238 281 286 268 281 292 294 293 284 283 281 256 219 224 273 342 8 344 313 269 256 274 138 124 115 110 108 99 9 311 22 43 226 191 183 174 164 191 211 233 281 315 4 315 301 314 315 301 246 185 239 259 278 289 292 177 168 223 274 288 298
44 44 44 44 45 46 49 50 51 52 49 48 59 68 70 75 84 95 110 98 89 267 144 124 159 272 280 258 311 312 282 277 318 255 207 227 274 265 230 217 285 345 335 311 299 282 273 345 18 9 142 108 88 304 298 300 280 230 246 263 222 182 161 186 232 212 269 304 290 272 290 302 296 230 202 243 297 301 301 303 299 166 145 265 307 312 321
44 45 44 44 45 46 49 51 51 52 51 50 60 69 70 72 81 96 114 112 113 151 215 145 189 216 137 158 256 344 0 354 355 257 211 191 249 254 230 253 318 337 320 307 343 1 348 28 7 339 339 3 343 292 271 212 188 214 277 285 204 190 209 218 244 239 150 285 291 293 302 305 287 208 204 193 237 246 235 283 286 200 146 302 318 322 323
43 44 43 43 45 46 50 53 52 53 54 54 63 74 73 73 83 94 98 105 112 106 92 195 197 186 133 126 267 67 44 317 325 317 298 272 261 257 156 107 317 318 323 342 44 51 39 37 7 336 329 294 254 292 301 302 264 177 183 211 158 156 258 176 222 267 223 242 282 280 272 284 282 263 228 175 196 215 198 266 276 202 160 251 324 319 312
42 42 42 43 46 48 49 50 50 53 56 57 65 73 72 72 87 95 89 85 89 86 115 154 150 161 136 150 248 142 136 243 59 12 317 326 310 293 185 134 161 210 274 335 18 57 52 51 96 287 277 218 226 301 307 316 301 273 172 168 150 138 141 196 214 243 209 203 263 261 240 258 271 274 275 115 130 164 216 272 285 334 346 345 359 311 304
41 41 41 43 47 49 50 49 49 52 56 61 68 70 68 71 88 97 92 90 97 98 165 175 159 194 240 142 154 157 151 154 131 179 291 315 310 309 327 352 138 202 239 333 20 38 36 18 312 301 271 172 112 301 306 348 298 282 277 277 207 144 158 216 236 246 198 203 249 277 265 256 258 265 276 104 132 187 257 287 324 354 333 330 342 309 304
39 39 40 43 46 49 50 48 47 50 55 61 70 70 65 68 89 102 99 88 69 97 157 198 205 215 171 116 73 104 128 31 68 163 311 330 95 111 333 274 243 258 283 30 74 70 16 293 209 190 274 246 137 307 296 281 269 278 309 306 282 179 161 194 250 248 193 208 244 282 283 259 235 235 98 109 226 283 296 315 343 345 319 318 327 320 313
38 38 38 40 43 47 49 48 45 47 51 61 73 75 69 70 82 95 106 113 106 92 124 189 219 189 181 190 86 118 141 70 93 161 281 332 22 72 59 157 54 328 302 13 31 86 256 299 278 171 254 267 1 340 281 266 258 256 268 272 241 185 223 251 221 182 183 259 253 281 290 260 145 57 45 145 236 297 320 324 327 324 311 314 317 315 316
37 37 36 38 40 42 46 48 45 43 45 55 75 80 75 76 81 87 107 120 117 103 140 158 140 125 119 94 78 78 41 263 178 173 198 288 309 19 8 311 8 30 304 18 16 285 217 243 342 273 266 280 300 286 285 292 288 267 232 265 241 185 203 267 258 181 192 249 221 246 279 277 126 179 298 270 267 304 327 307 303 311 311 306 303 306 312
35 35 34 35 37 37 41 45 44 42 43 44 66 83 78 79 88 94 104 104 92 86 122 132 115 99 93 86 78 65 41 37 213 220 185 253 309 60 25 278 211 170 124 80 321 314 313 158 275 288 289 272 249 254 266 279 293 320 61 230 240 199 187 264 279 217 209 251 250 259 284 300 273 247 277 284 288 298 297 279 293 305 302 293 295 304 309
33 34 33 33 34 34 36 40 40 40 41 39 52 79 80 80 92 100 101 96 87 82 104 120 112 92 80 70 69 63 55 51 33 234 190 190 2 185 206 287 114 198 154 41 304 313 249 219 305 324 282 253 232 267 258 232 261 305 272 227 247 234 169 228 271 236 251 270 262 258 273 286 290 288 279 272 280 291 295 284 293 298 298 301 303 304 309
30 32 32 32 33 32 32 36 38 38 40 38 45 73 88 87 90 95 93 95 98 93 88 101 117 97 59 48 57 55 47 40 25 17 194 200 200 4 217 161 157 214 76 136 209 93 122 223 231 292 256 229 177 250 272 250 235 261 276 267 267 230 161 219 248 250 272 270 262 266 286 288 292 296 288 275 278 295 307 302 303 306 307 304 301 301 306
28 30 31 31 32 31 30 33 34 36 38 38 41 62 80 70 55 49 60 70 106 123 107 73 281 116 62 45 45 26 22 21 12 6 268 210 211 218 194 137 153 207 141 151 175 148 187 238 204 218 249 230 204 226 251 258 245 122 278 273 266 142 120 248 246 240 244 259 273 296 305 297 294 291 286 298 328 326 313 309 309 309 305 299 301 307 313
28 30 31 31 31 30 30 31 32 33 35 35 37 48 57 51 37 34 44 41 55 102 100 148 209 171 263 32 29 357 356 1 352 343 323 246 229 232 221 182 180 190 127 114 150 188 214 223 190 230 234 227 261 255 234 263 285 272 249 259 258 97 235 259 264 267 263 269 285 301 296 293 305 343 5 350 344 329 318 319 323 323 325 327 329 329 328
29 30 31 32 31 30 30 30 29 29 27 28 36 43 47 44 38 35 36 27 359 337 83 107 210 325 294 174 32 3 355 347 339 330 311 273 248 245 231 205 191 160 129 111 34 105 118 68 217 223 222 238 288 250 232 274 298 267 254 257 150 160 244 250 267 283 274 282 310 333 325 314 326 349 350 341 340 337 329 332 339 339 337 337 334 330 328
28 28 29 30 29 30 31 30 30 29 22 18 34 45 44 42 38 33 32 31 29 148 131 117 163 64 111 178 297 335 342 338 340 335 305 269 257 246 220 192 172 137 141 177 172 144 177 219 216 210 217 255 248 231 233 277 296 256 255 238 169 210 262 286 295 289 297 316 334 347 344 325 327 335 335 334 340 345 339 337 339 337 335 334 329 324 323
27 26 28 28 28 30 32 30 32 30 20 16 35 50 35 38 35 29 26 31 37 51 95 89 98 95 87 265 292 320 338 340 341 342 316 275 259 233 209 189 177 151 106 110 154 189 213 220 223 233 214 190 212 251 253 224 220 253 259 251 108 351 332 343 329 317 322 329 336 341 332 317 323 330 327 325 334 339 335 333 331 328 328 328 324 319 317
26 24 25 26 27 31 33 32 34 30 22 24 47 49 28 31 22 20 23 30 31 37 93 108 84 331 305 281 281 332 349 346 344 345 336 307 270 232 209 187 172 148 97 55 227 232 256 252 246 262 250 207 213 257 256 198 218 261 284 339 22 14 359 357 349 339 335 329 327 325 314 310 320 324 321 328 335 335 329 321 321 325 327 326 323 318 316
22 22 23 24 27 32 33 33 34 29 26 34 53 62 75 300 348 3 19 31 30 39 95 104 55 314 328 301 281 348 354 350 347 345 333 323 315 251 201 184 181 181 174 256 250 219 254 243 227 254 252 207 212 241 246 215 232 293 350 9 16 9 2 2 357 348 336 322 315 315 319 326 332 332 334 336 333 330 326 322 324 327 326 322 318 313 311
17 19 20 21 26 32 36 37 36 29 32 46 63 88 118 280 333 356 17 30 31 50 99 77 26 280 323 317 319 357 356 351 357 358 338 316 16 31 158 166 218 218 206 208 266 233 233 221 228 269 252 180 204 252 237 222 272 345 9 12 5 359 360 357 348 344 340 329 325 331 335 338 336 331 328 325 323 324 324 321 321 321 317 314 311 309 308
13 15 14 18 25 30 36 41 38 35 44 54 63 74 76 55 21 16 22 35 48 63 88 86 86 198 315 307 348 12 5 354 4 3 338 263 93 35 158 133 320 234 207 200 229 243 230 190 199 269 249 165 195 269 238 33 6 6 9 7 357 350 346 342 341 342 342 340 338 330 320 318 316 313 313 315 320 322 320 317 317 316 313 312 311 309 310
8 9 11 13 17 25 40 42 34 37 55 59 54 55 60 60 48 40 38 55 72 63 58 71 108 267 326 324 40 25 10 353 277 352 343 31 62 22 240 131 7 228 197 206 236 256 256 211 205 250 249 136 76 255 281 10 15 9 1 357 351 341 337 342 346 343 338 336 333 320 308 309 310 311 314 318 321 321 320 320 319 317 315 312 308 307 310
6 5 5 360 1 21 50 40 28 37 62 56 39 44 64 66 55 49 47 51 62 59 33 46 77 114 359 347 305 356 2 353 257 288 321 346 33 35 93 37 328 258 197 220 249 249 239 197 182 226 217 118 136 238 310 2 1 356 356 355 350 343 341 342 339 333 329 327 325 322 322 321 321 322 324 322 321 321 320 320 318 317 316 311 307 310 313
5 357 350 343 349 9 42 23 22 29 38 28 23 49 82 76 64 59 55 52 54 73 128 53 59 106 44 316 279 334 355 350 273 230 304 313 8 32 70 95 288 256 161 294 254 250 256 161 173 251 257 97 91 273 331 356 350 352 355 348 338 335 330 323 322 322 323 323 323 325 329 329 329 329 326 322 321 322 320 318 319 319 317 313 311 313 314
351 346 340 326 321 334 356 11 13 11 7 8 38 82 93 86 76 65 55 46 44 49 65 86 98 83 34 293 287 342 351 340 312 342 336 304 310 343 43 287 287 286 293 276 243 228 249 161 197 264 282 109 114 156 266 304 329 342 339 326 322 325 321 319 325 327 326 327 330 332 332 330 327 325 321 318 318 317 315 314 314 312 309 308 307 307 308
331 322 334 339 333 350 14 355 350 349 351 3 53 85 70 53 59 53 29 18 23 32 43 62 65 29 351 291 299 326 337 340 1 355 348 311 312 323 333 234 294 304 295 278 243 175 115 208 169 295 290 162 118 60 321 283 286 299 302 305 314 319 317 322 331 333 331 331 331 330 326 322 317 314 313 312 311 310 309 307 304 302 302 301 301 303 304
331 295 326 4 26 154 305 325 329 334 345 3 33 66 35 17 34 40 355 349 6 11 20 48 70 78 320 306 302 309 332 2 347 339 346 291 301 308 297 299 340 356 302 291 279 113 332 264 76 20 302 257 358 0 333 292 284 300 313 318 321 326 329 332 333 331 326 319 315 316 317 315 314 313 311 311 310 309 307 305 303 304 306 306 305 305 304
17 24 15 8 357 328 319 323 326 333 353 6 22 56 43 21 32 42 358 21 25 347 353 38 30 228 216 286 292 297 4 8 323 320 296 251 242 114 294 294 329 322 280 280 297 62 355 278 323 4 25 332 347 339 322 308 315 329 334 336 336 336 336 334 330 328 324 317 316 320 321 318 317 316 312 311 312 309 307 306 306 307 309 309 308 308 306
15 16 2 333 326 333 342 349 359 15 40 36 37 49 41 21 23 39 46 48 16 284 273 58 7 316 158 175 265 292 337 342 353 105 267 273 256 106 262 279 352 9 265 262 280 53 44 291 287 285 215 314 325 319 317 324 333 337 338 339 338 337 335 333 331 331 330 326 323 324 323 320 318 316 313 312 312 309 307 307 307 308 309 309 308 308 307
357 352 344 331 329 342 358 10 15 23 46 63 53 45 21 9 13 0 13 59 12 288 288 81 317 295 289 276 253 255 291 327 33 101 275 286 280 140 268 312 24 326 254 254 47 54 37 272 271 271 251 288 302 311 326 333 335 336 336 337 338 337 335 334 332 330 329 326 323 321 321 318 317 315 313 313 311 309 309 309 308 309 309 309 308 308 308
350 350 351 343 343 357 6 6 14 34 47 41 43 42 11 15 39 10 319 311 157 297 298 306 310 306 304 300 250 239 257 292 9 109 261 285 331 46 16 352 326 228 250 295 55 49 297 257 247 256 293 300 312 328 338 337 335 335 337 337 337 335 332 330 327 325 324 323 321 319 318 316 314 313 313 312 311 310 310 310 309 308 308 307 307 307 307
343 350 11 10 356 6 6 340 358 50 52 33 64 96 44 7 39 241 316 332 1 322 296 312 337 329 320 341 354 266 264 292 52 54 274 288 356 51 25 273 253 258 308 327 352 280 276 252 213 252 295 315 333 339 340 339 337 336 335 332 331 329 327 325 323 321 321 320 318 317 315 313 312 312 312 311 311 310 309 308 308 308 308 307 307 306 306
340 353 22 20 353 356 4 308 355 49 63 51 156 151 152 169 197 215 243 237 215 291 301 307 19 267 277 292 309 258 260 9 19 305 289 335 339 248 228 245 274 3 343 312 300 299 297 294 354 339 329 336 341 339 338 337 334 330 326 324 325 324 323 321 320 319 318 317 316 315 314 313 312 311 310 310 310 309 308 307 308 308 307 307 307 306 307
59 64 66 70 333 330 58 77 25 42 100 192 194 168 163 177 196 216 227 187 200 280 294 296 285 241 277 293 293 227 37 25 327 259 85 66 277 249 236 256 323 349 324 307 291 276 282 304 355 349 339 337 336 333 331 329 325 323 321 319 320 320 319 318 318 317 316 315 314 314 313 312 311 310 309 309 310 309 308 307 307 307 306 306 305 305 306
78 69 80 105 294 338 57 80 40 22 179 207 208 193 188 243 261 254 242 227 229 266 288 288 257 216 231 262 268 268 18 47 348 273 294 121 254 283 347 17 279 244 218 255 266 263 283 329 345 340 335 332 328 325 323 321 318 317 317 317 316 316 317 317 316 315 314 314 313 313 312 310 310 309 309 308 308 308 307 307 307 307 306 305 304 304 305
93 60 73 116 213 345 62 84 243 275 37 8 272 265 297 356 332 274 239 221 223 264 284 289 311 285 266 2 312 284 350 41 275 267 328 91 292 313 343 334 285 265 198 213 265 296 322 335 333 329 326 323 319 316 317 316 315 316 317 316 315 315 314 315 314 313 312 312 312 311 310 309 309 309 308 306 306 307 308 308 308 307 305 304 304 304 304
79 80 89 111 130 122 118 150 191 1 358 326 287 287 285 246 271 274 248 216 227 265 254 213 104 32 292 1 38 1 321 306 257 308 0 22 261 275 288 280 287 292 259 241 297 322 325 324 324 321 316 313 313 314 314 314 314 315 316 315 314 313 313 312 312 311 311 311 311 309 308 308 308 308 307 306 306 307 308 308 307 305 304 304 304 304 304
57 71 85 75 68 87 221 56 56 29 333 304 288 279 222 207 266 272 242 204 240 300 312 76 68 50 29 31 30 357 269 246 217 333 321 258 218 223 279 267 270 289 302 309 318 317 314 316 318 314 311 311 312 311 311 313 314 314 314 312 311 311 312 311 311 310 310 310 310 309 308 309 309 308 308 307 307 307 307 306 305 305 305 306 306 306 305
36 62 74 50 54 131 154 118 91 41 281 276 263 233 198 195 254 265 231 186 59 9 16 62 54 34 32 24 349 280 257 233 157 222 260 243 180 142 246 267 282 304 313 312 310 307 308 312 313 308 308 310 309 308 310 312 312 311 311 310 310 311 312 311 310 309 309 310 310 309 308 308 309 308 308 307 307 307 306 306 307 308 308 309 309 309 307
49 77 88 40 57 116 124 106 96 249 254 249 232 216 200 206 250 266 242 189 49 354 335 133 97 64 26 277 253 273 344 356 314 284 271 243 186 176 225 271 294 305 303 300 300 301 303 305 305 303 304 304 303 305 308 309 309 310 311 311 311 311 310 309 308 308 308 308 308 308 307 307 307 308 307 306 306 306 306 307 309 310 310 309 309 309 307